Location: Unspecified
(48.5670°N, 0.0000°E)
Time: 14:51:19
(UTC+00:00)

Vanguard 2 Rocket - Pass Details

Date: 26 August 2019
Orbit: 554 x 3326 km, 32.9° (Epoch: 21 September)

Event Time Altitude Azimuth Distance (km) Brightness Sun altitude
Rises 00:03:06 0° 184° (S) 4,245 - -30.9°
Reaches altitude 10° 00:07:37 10° 160° (SSE) 3,800 - -30.8°
Maximum altitude 00:12:18 14° 133° (SE) 3,991 - -30.8°
Exits shadow 00:14:10 13° 123° (ESE) 4,226 10.0 -30.8°
Drops below altitude 10° 00:18:01 10° 107° (ESE) 4,891 10.5 -30.7°
Sets 00:25:39 0° 87° (E) 6,537 11.4 -30.6°
